Effingham, IL

12:14 AM CDT on August 23, 2019 (GMT -0500)
Effingham

Weather History for K1H2 - May, 2019

Change the Weather History Date:

Wednesday, May 22, 2019

  Actual Average (KMTO) Record (KMTO)
Temperature  
Mean Temperature 70 °F 65 °F  
Max Temperature 81 °F 75 °F 91 °F (1964)
Min Temperature 59 °F 55 °F 39 °F (1963)
Degree Days  
Heating Degree Days 0 3  
Month to date heating degree days 108  
Since 1 July heating degree days 5370  
Cooling Degree Days 5 3  
Month to date cooling degree days 42  
Year to date cooling degree days 56  
Growing Degree Days 20 (Base 50)    
Moisture  
Dew Point 63 °F    
Average Humidity 81    
Maximum Humidity 100    
Minimum Humidity 51    
Precipitation  
Precipitation 0.37 in 0.14 in 1.14 in (1968)
Month to date precipitation 3.32  
Year to date precipitation 13.30  
Sea Level Pressure  
Sea Level Pressure 29.92 in    
Wind  
Wind Speed 8 mph (SE)    
Max Wind Speed 16 mph    
Max Gust Speed 21 mph    
Visibility 10 miles    
Events Rain , Thunderstorm    
T = Trace of Precipitation, MM = Missing Value Source: NWS Daily Summary

Daily Weather History Graph

Daily Weather History Graph

Search for Another Location

Airport or City:

Astronomy

May. 22, 2019 Rise Set
Actual Time 5:35 AM CDT 8:06 PM CDT
Civil Twilight 5:05 AM CDT 8:37 PM CDT
Nautical Twilight 4:27 AM CDT 9:15 PM CDT
Astronomical Twilight 3:44 AM CDT 9:57 PM CDT
Moon 11:49 PM CDT (5/22) 8:44 AM CDT (5/22)
Length of Visible Light 15h 31m
Length of Day
14h 30m
Waning Gibbous, 85% of the Moon is Illuminated
May 22
Waning Gibbous
May 26
Last Quarter
Jun 3
New
Jun 10
First Quarter
Jun 17
Full

Hourly Weather History & Observations

Time (CDT) Temp. Heat Index Dew Point Humidity Pressure Visibility Wind Dir Wind Speed Gust Speed Precip Events Conditions
12:15 AM 63.0 °F - 63.0 °F 100% 29.83 in 3.0 mi Calm Calm - 0.02 in Rain , Thunderstorm Heavy Thunderstorms and Rain
12:35 AM 63.0 °F - 63.0 °F 100% 29.87 in 4.0 mi SW 6.9 mph - 0.10 in Rain Heavy Rain
12:55 AM 62.6 °F - 62.6 °F 100% 29.87 in 7.0 mi SW 10.4 mph - 0.20 in Rain Rain
1:15 AM 61.7 °F - 61.7 °F 100% 29.87 in 7.0 mi SW 4.6 mph - 0.03 in Rain Heavy Rain
1:35 AM 61.0 °F - 61.0 °F 100% 29.85 in 10.0 mi Calm Calm - 0.06 in Rain Rain
1:55 AM 61.0 °F - 61.0 °F 100% 29.85 in 5.0 mi ESE 3.5 mph - 0.11 in Rain Rain
2:15 AM 60.8 °F - 60.8 °F 100% 29.83 in 7.0 mi ESE 5.8 mph - 0.02 in Rain Light Rain
2:35 AM 60.8 °F - 60.8 °F 100% 29.84 in 10.0 mi ESE 8.1 mph - 0.02 in Rain Light Rain
2:55 AM 60.4 °F - 60.4 °F 100% 29.86 in 7.0 mi ESE 6.9 mph - 0.05 in Rain Heavy Rain
3:15 AM 60.4 °F - 60.4 °F 100% 29.86 in 10.0 mi SE 10.4 mph - 0.01 in Rain Light Rain
3:35 AM 60.1 °F - 60.1 °F 100% 29.85 in 10.0 mi ESE 10.4 mph - 0.01 in Rain Light Rain
3:55 AM 59.9 °F - 59.9 °F 100% 29.84 in 10.0 mi ESE 8.1 mph - 0.01 in Rain Rain
4:15 AM 59.9 °F - 59.9 °F 100% 29.85 in 10.0 mi ESE 6.9 mph - N/A   Overcast
4:35 AM 59.9 °F - 59.9 °F 100% 29.82 in 10.0 mi East 12.7 mph - N/A   Overcast
4:55 AM 59.9 °F - 59.9 °F 100% 29.87 in 10.0 mi ESE 8.1 mph - N/A   Overcast
5:15 AM 60.1 °F - 60.1 °F 100% 29.87 in 10.0 mi ESE 10.4 mph - N/A Rain Rain
5:35 AM 60.1 °F - 60.1 °F 100% 29.85 in 10.0 mi ESE 10.4 mph - N/A Rain Light Rain
5:55 AM 59.9 °F - 59.9 °F 100% 29.87 in 10.0 mi SSE 8.1 mph - N/A   Overcast
6:15 AM 59.7 °F - 59.7 °F 100% 29.88 in 10.0 mi SE 8.1 mph - N/A   Mostly Cloudy
6:35 AM 59.9 °F - 59.9 °F 100% 29.88 in 10.0 mi SE 5.8 mph - N/A   Overcast
6:55 AM 60.3 °F - 60.3 °F 100% 29.90 in 10.0 mi SSE 5.8 mph - N/A   Overcast
7:15 AM 61.0 °F - 61.0 °F 100% 29.90 in 10.0 mi SE 10.4 mph - N/A   Overcast
7:35 AM 61.3 °F - 61.3 °F 100% 29.91 in 10.0 mi SE 10.4 mph - N/A   Overcast
7:55 AM 62.1 °F - 61.9 °F 99% 29.91 in 10.0 mi SE 9.2 mph - N/A   Mostly Cloudy
8:15 AM 63.7 °F - 61.5 °F 93% 29.92 in 10.0 mi SE 9.2 mph - N/A   Scattered Clouds
8:35 AM 64.6 °F - 61.9 °F 91% 29.92 in 10.0 mi SE 13.8 mph 18.4 mph N/A   Scattered Clouds
8:55 AM 65.3 °F - 61.9 °F 89% 29.92 in 10.0 mi SSE 13.8 mph 17.3 mph N/A   Scattered Clouds
9:15 AM 66.7 °F - 62.4 °F 86% 29.93 in 10.0 mi SE 9.2 mph 17.3 mph N/A   Scattered Clouds
9:35 AM 68.2 °F - 63.3 °F 84% 29.94 in 10.0 mi SE 11.5 mph - N/A   Scattered Clouds
9:55 AM 68.9 °F - 63.0 °F 81% 29.93 in 10.0 mi SE 15.0 mph - N/A   Clear
10:15 AM 70.3 °F - 63.7 °F 79% 29.94 in 10.0 mi SE 16.1 mph 20.7 mph N/A   Clear
10:35 AM 71.2 °F - 63.7 °F 77% 29.94 in 10.0 mi SSE 15.0 mph - N/A   Scattered Clouds
10:55 AM 72.5 °F - 64.2 °F 75% 29.94 in 10.0 mi SSE 13.8 mph 18.4 mph N/A   Clear
11:15 AM 73.4 °F - 63.9 °F 72% 29.94 in 10.0 mi SSE 13.8 mph 20.7 mph N/A   Clear
11:35 AM 74.3 °F - 64.4 °F 71% 29.95 in 10.0 mi SE 13.8 mph 18.4 mph N/A   Clear
11:55 AM 74.7 °F - 64.9 °F 72% 29.95 in 10.0 mi SSE 11.5 mph 18.4 mph N/A   Clear
12:15 PM 75.6 °F - 64.8 °F 69% 29.95 in 10.0 mi SSE 13.8 mph 18.4 mph N/A   Mostly Cloudy
12:35 PM 76.3 °F - 64.6 °F 67% 29.95 in 10.0 mi South 11.5 mph 20.7 mph N/A   Scattered Clouds
12:55 PM 76.6 °F - 64.2 °F 65% 29.95 in 10.0 mi South 13.8 mph 20.7 mph N/A   Clear
1:15 PM 77.0 °F - 64.2 °F 65% 29.95 in 10.0 mi SSE 11.5 mph 18.4 mph N/A   Clear
1:35 PM 77.9 °F - 64.8 °F 64% 29.95 in 10.0 mi South 10.4 mph 18.4 mph N/A   Scattered Clouds
1:55 PM 77.9 °F - 63.7 °F 61% 29.95 in 10.0 mi SSE 9.2 mph 20.7 mph N/A   Clear
2:15 PM 78.3 °F - 64.0 °F 61% 29.94 in 10.0 mi SSE 9.2 mph 16.1 mph N/A   Clear
2:35 PM 79.0 °F - 64.0 °F 60% 29.95 in 10.0 mi SSE 9.2 mph 17.3 mph N/A   Clear
2:55 PM 79.9 °F - 64.4 °F 59% 29.94 in 10.0 mi South 6.9 mph - N/A   Clear
3:15 PM 80.4 °F 81.7 °F 63.1 °F 55% 29.95 in 10.0 mi SSE 10.4 mph 18.4 mph N/A   Clear
3:35 PM 80.4 °F 82.0 °F 63.9 °F 57% 29.94 in 10.0 mi SE 11.5 mph - N/A   Clear
3:55 PM 80.6 °F 81.9 °F 63.0 °F 55% 29.94 in 10.0 mi SSE 12.7 mph - N/A   Clear
4:15 PM 80.8 °F 81.8 °F 61.9 °F 52% 29.94 in 10.0 mi SSE 12.7 mph 18.4 mph N/A   Clear
4:35 PM 80.8 °F 81.9 °F 62.2 °F 53% 29.95 in 10.0 mi SSE 11.5 mph 18.4 mph N/A   Clear
4:55 PM 80.8 °F 81.9 °F 62.4 °F 53% 29.95 in 10.0 mi South 6.9 mph - N/A   Clear
5:15 PM 81.0 °F 81.8 °F 61.3 °F 51% 29.96 in 10.0 mi SSE 12.7 mph 16.1 mph N/A   Clear
5:35 PM 81.0 °F 81.9 °F 61.7 °F 52% 29.95 in 10.0 mi SSE 10.4 mph - N/A   Clear
5:55 PM 80.2 °F 81.4 °F 62.4 °F 54% 29.95 in 10.0 mi SSE 10.4 mph - N/A   Clear
6:15 PM 80.2 °F 81.6 °F 63.3 °F 56% 29.94 in 10.0 mi SSE 11.5 mph 16.1 mph N/A   Clear
6:35 PM 79.7 °F - 63.7 °F 58% 29.94 in 10.0 mi SSE 9.2 mph - N/A   Clear
6:55 PM 79.3 °F - 64.8 °F 61% 29.96 in 10.0 mi SSE 6.9 mph - N/A   Clear
7:15 PM 78.6 °F - 65.5 °F 64% 29.96 in 10.0 mi SSE 9.2 mph - N/A   Clear
7:35 PM 77.9 °F - 65.3 °F 65% 29.96 in 10.0 mi SE 6.9 mph - N/A   Clear
7:55 PM 76.1 °F - 66.2 °F 71% 29.96 in 10.0 mi SE 5.8 mph - N/A   Clear
8:15 PM 74.5 °F - 67.1 °F 78% 29.96 in 10.0 mi SE 5.8 mph - N/A   Clear
8:35 PM 73.9 °F - 67.1 °F 79% 29.96 in 10.0 mi ESE 5.8 mph - N/A   Clear
8:55 PM 73.4 °F - 67.1 °F 81% 29.95 in 10.0 mi SE 8.1 mph - N/A   Clear
9:15 PM 73.6 °F - 67.3 °F 81% 29.95 in 10.0 mi SE 6.9 mph - N/A   Clear
9:35 PM 73.8 °F - 67.5 °F 81% 29.96 in 10.0 mi SE 8.1 mph - N/A   Clear
9:55 PM 73.4 °F - 67.8 °F 83% 29.96 in 10.0 mi ESE 10.4 mph - N/A   Clear
10:15 PM 73.4 °F - 68.2 °F 84% 29.97 in 10.0 mi SE 8.1 mph - N/A   Clear
10:35 PM 73.8 °F - 68.9 °F 85% 29.98 in 10.0 mi SE 9.2 mph - N/A   Clear
10:55 PM 73.4 °F - 69.1 °F 86% 29.98 in 10.0 mi SE 8.1 mph - N/A   Clear
11:15 PM 73.8 °F - 69.4 °F 86% 29.98 in 10.0 mi SE 9.2 mph - N/A   Scattered Clouds
11:35 PM 73.4 °F - 69.8 °F 88% 29.97 in 5.0 mi SE 8.1 mph - N/A   Scattered Clouds
11:55 PM 73.4 °F - 70.2 °F 90% 29.97 in 10.0 mi SE 8.1 mph - N/A   Clear